Location: Navalmahillo
(40.4336°N, 5.3402°W)
Time: 02:59:14
(UTC+00:00)

Daily predictions for brighter satellites

Satellite Brightness Start Highest point End
(mag) Time Altitude Azimuth Time Altitude Azimuth Time Altitude Azimuth
Cosmos 2082 Rocket 3.5 00:07:01 28° E 00:07:01 28° E 00:10:56 10° NE
Cosmos 1833 Rocket 2.7 00:08:10 73° NW 00:08:10 73° NW 00:13:40 10° NNE
Cosmos 724 4.4 00:12:03 66° ENE 00:12:03 66° ENE 00:17:19 10° NE
Cosmos 1417 Rocket 4.3 00:11:30 10° N 00:17:50 83° W 00:18:02 81° SW
Cosmos 1140 Rocket 3.7 00:22:28 65° NNW 00:22:28 65° NNW 00:27:12 10° NNE
ATLAS CENTAUR R/B 4.4 00:10:53 10° NW 00:24:53 76° NE 00:31:03 27° SE
USA 267 3.4 00:21:31 10° NE 00:27:59 67° NW 00:30:21 41° WSW
GP-B 4.0 00:31:51 10° N 00:35:02 47° N 00:35:02 47° N
ALOS 2 4.4 00:38:41 23° WNW 00:38:41 23° WNW 00:40:58 10° NW
H-2A R/B 3.1 00:35:40 10° N 00:38:59 44° NNW 00:38:59 44° NNW
NOSS 3-4 (A) 4.2 00:36:28 10° NNW 00:43:25 64° NE 00:47:10 33° ESE
NOSS 3-4 (C) 4.2 00:36:35 10° NNW 00:43:31 63° NE 00:47:19 32° ESE
Cosmos 2251 Rocket 3.7 00:44:26 68° NNW 00:44:26 68° NNW 00:49:14 10° NNE
Cosmos 407 Rocket 3.7 00:44:27 64° NW 00:44:27 64° NW 00:49:21 10° NNE
S3M 4.1 00:38:15 10° NNW 00:44:32 62° W 00:44:46 61° WSW
Cosmos 2315 Rocket 3.8 00:43:47 10° N 00:50:06 82° W 00:50:25 79° SW
Cosmos 1190 Rocket 4.2 00:51:10 68° NE 00:51:10 68° NE 00:55:54 10° NNE
Cosmos 2285 Rocket 4.4 00:51:49 48° W 00:52:42 52° WNW 00:58:52 10° N
Cosmos 1763 Rocket 3.7 00:53:02 10° NNW 00:58:19 66° ENE 00:58:19 66° ENE
USA 59 Rocket 2.9 00:57:46 10° WNW 00:57:49 10° WNW 00:57:49 10° WNW
USA 234 3.6 00:56:31 16° ESE 01:01:47 65° NE 01:08:16 10° NW
Cosmos 1862 Rocket 4.4 01:04:13 48° NNE 01:04:13 48° NNE 01:07:25 10° N
Meteor 1-23 Rocket 4.3 01:03:41 65° WNW 01:03:41 65° WNW 01:09:13 10° N
Cosmos 1953 4.4 01:02:35 10° NNE 01:05:20 21° ENE 01:05:20 21° ENE
Cosmos 1697 Rocket 3.4 01:01:25 10° NW 01:05:44 41° WNW 01:05:44 41° WNW
Cosmos 1980 Rocket 2.0 01:08:15 10° NNW 01:13:59 88° WSW 01:14:01 87° SW
Cosmos 540 Rocket 3.5 01:11:36 10° NNW 01:16:46 69° ENE 01:16:52 69° ENE
COSMOS 2406 3.1 01:19:32 79° WSW 01:19:48 82° WNW 01:25:36 10° NNE
Cosmos 1244 Rocket 4.3 01:20:19 74° SSW 01:20:56 88° W 01:27:09 10° N
Cosmos 1356 Rocket 4.4 01:22:17 44° N 01:22:17 44° N 01:25:12 10° N
ADEOS II 4.3 01:19:47 10° ENE 01:22:24 14° E 01:24:12 12° ESE
Lacrosse 5 rocket 4.0 01:21:22 10° NNW 01:24:22 19° NNE 01:27:17 10° ENE
Cosmos 2369 3.6 01:19:19 10° NNW 01:25:03 88° ENE 01:25:30 77° SSE
IDEFIX/ARIANE 42P 3.7 01:23:02 10° NNE 01:27:45 33° E 01:28:28 32° ESE
Okean 1-7 3.5 01:30:04 57° NE 01:30:04 57° NE 01:33:38 10° NNE
Meteor 2-10 Rocket 4.1 01:25:10 10° NNW 01:30:39 51° W 01:30:39 51° W
Meteor 1-16 Rocket 4.2 01:27:18 10° N 01:33:01 80° E 01:33:51 66° SSE
Okean 3 4.3 01:34:53 43° NNW 01:34:53 43° NNW 01:37:52 10° N
Cosmos 1315 Rocket 3.7 01:39:37 44° NE 01:39:37 44° NE 01:42:37 10° NNE
SJ 16-02 3.4 01:39:50 17° ESE 01:40:13 17° E 01:42:59 10° NE
Helios 1A Rocket 3.9 01:43:06 38° NNW 01:43:06 38° NNW 01:45:36 10° NNW
SL-16 R/B 3.4 01:39:01 10° N 01:44:20 39° ENE 01:49:03 13° SE
Cosmos 1850 Rocket 4.3 01:46:14 51° SE 01:46:48 54° ESE 01:51:56 10° NNE
Cosmos 2082 Rocket 3.0 01:48:50 36° W 01:49:56 39° WNW 01:55:17 10° N
Cosmos 1741 Rocket 4.2 01:51:18 53° SE 01:51:55 56° ESE 01:57:03 10° NNE
SL-16 R/B 4.4 01:50:15 10° ESE 01:55:16 26° ENE 02:00:18 10° N
Cosmos 1386 Rocket 4.5 01:55:08 56° SSW 01:56:38 82° W 02:03:04 10° N
Cosmos 1782 Rocket 4.3 01:54:37 10° N 01:58:50 45° ENE 01:59:39 40° ESE
Cosmos 1908 Rocket 3.5 01:55:11 10° N 01:59:24 80° NNW 01:59:24 80° NNW
CZ-2D R/B 2.7 01:55:52 10° NNE 02:01:10 49° E 02:02:41 39° SE
Cosmos 968 Rocket 3.9 02:02:10 43° SE 02:03:04 49° ESE 02:08:00 10° NNE
Genesis I 4.4 02:05:37 31° E 02:05:37 31° E 02:08:03 10° NE
Cosmos 1455 3.1 02:02:46 10° N 02:05:04 39° NNW 02:05:04 39° NNW
Cosmos 2360 Rocket 4.0 02:01:20 10° N 02:06:17 30° ENE 02:11:11 10° ESE
DELTA 2 R/B (1) 3.4 02:06:58 47° W 02:08:40 83° S 02:14:14 10° E
MSX 3.8 02:08:28 10° NNE 02:14:13 76° ESE 02:16:00 46° S
Cosmos 841 Rocket 3.4 02:09:49 10° NNW 02:15:04 82° WSW 02:16:20 53° S
Resurs 1-4 Rocket 2.2 02:10:23 10° NNE 02:15:38 71° ESE 02:17:04 48° S
H-2A R/B 3.3 02:15:52 10° N 02:19:49 75° WNW 02:19:49 75° WNW
ATLAS CENTAUR R/B 4.4 02:10:30 10° NW 02:21:14 36° WSW 02:23:12 33° SW
OAO 3 Rocket 3.8 02:24:07 39° SSE 02:24:07 39° SSE 02:27:47 10° ESE
Meteor 1-4 Rocket 4.4 02:25:17 17° NW 02:25:17 17° NW 02:26:24 10° NNW
FENGYUN 3A 4.3 02:19:51 10° NNE 02:25:04 49° E 02:27:27 29° SSE
Cosmos 2278 3.6 02:20:42 10° NNW 02:26:24 73° WSW 02:28:37 38° S
COBE Rocket 4.0 02:21:47 10° N 02:26:39 65° WNW 02:27:39 52° SW
CZ-2C R/B 2.5 02:29:15 34° SSE 02:31:35 85° ENE 02:36:47 10° NNW
Cosmos 2242 Rocket 3.5 02:30:52 57° S 02:31:45 84° E 02:36:14 10° N
Timation 1 Rocket 4.3 02:32:20 43° SW 02:34:24 78° WNW 02:40:24 10° NNE
Cosmos 1745 Rocket 4.4 02:33:16 37° WSW 02:35:08 47° WNW 02:41:10 10° N
Cosmos 2333 Rocket 3.2 02:33:53 10° NNW 02:39:25 48° ENE 02:44:56 10° SE
SL-27 R/B 2.7 02:40:26 48° NE 02:40:26 48° NE 02:42:40 10° NNE
Cosmos 2098 Rocket 4.3 02:35:27 10° N 02:40:44 57° E 02:46:36 11° SSE
Cosmos 1953 3.9 02:38:15 10° NW 02:40:27 21° WNW 02:40:27 21° WNW
Cosmos 1814 Rocket 4.4 02:38:16 10° NNW 02:43:27 61° ENE 02:48:39 10° SSE
Cosmos 1242 Rocket 3.4 02:44:54 30° NW 02:44:54 30° NW 02:46:47 10° N
Cosmos 2322 Rocket 2.3 02:38:25 10° NNW 02:44:05 75° ENE 02:49:45 10° SSE
USA 234 3.7 02:43:44 33° SSW 02:44:59 36° SW 02:50:56 10° WNW
SL-8 R/B 3.5 02:41:22 10° WNW 02:46:06 68° SW 02:50:50 10° SE
Meteor 2-5 Rocket 4.0 02:43:00 26° S 02:46:23 69° E 02:52:19 10° NNE
SL-4 R/B 2.9 02:47:25 35° SSE 02:48:14 38° SE 02:52:21 10° ENE
NPP 4.2 02:45:03 10° N 02:50:10 45° WNW 02:52:03 33° WSW
Cosmos 1408 2.8 02:53:36 40° NW 02:53:36 40° NW 02:56:02 10° N
Cosmos 1300 Rocket 3.8 02:52:26 10° NNW 02:56:35 47° W 02:57:22 41° SW
Tiangong -0.2 03:00:18 19° SE 03:00:18 19° SE 03:02:08 10° E
Cosmos 1833 4.1 02:58:20 31° SSW 03:01:11 89° WNW 03:06:52 10° NNE
ADEOS II 2.1 02:57:17 10° N 03:02:30 70° WNW 03:05:04 30° SSW
Lacrosse 5 rocket 1.0 02:59:07 10° NW 03:03:08 73° SW 03:06:57 10° SE
IDEFIX/ARIANE 42P 3.7 03:02:36 10° N 03:07:09 31° WNW 03:09:14 23° WSW
ALOS 2.3 03:03:10 10° NNE 03:07:48 76° ESE 03:10:34 24° S
Cosmos 2184 Rocket 4.1 03:06:43 15° S 03:11:52 75° E 03:18:08 10° N
Cosmos 1378 Rocket 3.5 03:10:03 24° S 03:12:33 78° E 03:16:51 10° N
Cosmos 405 Rocket 3.9 03:11:18 10° N 03:14:42 38° ENE 03:18:08 10° SSE
SJ 16-02 2.0 03:16:36 28° WSW 03:18:12 39° WNW 03:22:16 10° N
ATLAS CENTAUR R/B 3.2 03:16:00 11° SSE 03:18:17 18° ESE 03:20:45 10° ENE
CZ-2C R/B 3.9 03:16:00 10° NE 03:20:09 30° E 03:24:13 10° SSE
Envisat 3.8 03:15:51 10° NNE 03:20:45 48° E 03:25:38 10° S
Okean 1 Rocket 4.3 03:18:00 10° N 03:22:06 41° ENE 03:26:10 10° SSE
Cosmos 2154 Rocket 4.2 03:17:10 11° S 03:23:06 74° E 03:29:18 10° N
UNK 3.8 03:19:52 10° SSE 03:24:31 84° ENE 03:29:10 10° NNW
CZ-2C R/B 4.0 03:20:41 10° N 03:26:04 41° WNW 03:29:26 21° SW
Cosmos 839 Rocket 4.1 03:20:07 10° NNW 03:27:09 89° ENE 03:33:18 10° SSE
SL-16 R/B 3.1 03:23:26 10° NW 03:28:13 29° WSW 03:30:47 20° SW
ATLAS 2AS CENTAUR R/B 3.3 03:25:01 10° NNW 03:31:45 60° NE 03:38:15 10° SE
Meteor 1-28 Rocket 3.8 03:34:05 25° SW 03:35:20 32° W 03:38:35 10° NNW
Cosmos 2333 4.2 03:29:53 10° NNW 03:35:37 78° WSW 03:41:22 10° SSE
Cosmos 1703 4.5 03:34:35 21° WSW 03:35:47 25° WNW 03:38:54 10° NNW
SL-16 R/B 2.7 03:32:23 10° S 03:38:27 53° W 03:44:35 10° NNW
CZ-2D R/B 3.6 03:36:39 10° NNW 03:40:48 23° WNW 03:43:59 14° WSW
Cosmos 2219 Rocket 2.3 03:35:57 10° NNW 03:41:38 85° ENE 03:47:18 10° SSE
BREEZE-M DEB (TANK) 3.9 03:39:49 10° NW 03:42:22 22° N 03:44:08 10° ENE
Cosmos 2181 Rocket 4.4 03:39:01 10° NNW 03:44:57 43° W 03:50:41 10° SSW
RESURS DK-1 2.4 03:44:12 10° NW 03:48:09 52° WSW 03:52:06 10° S
CZ-4 R/B 3.8 03:45:21 10° NNE 03:50:03 88° WNW 03:54:51 10° SSW
COSMOS 2428 3.9 03:44:48 10° NNW 03:50:17 48° ENE 03:55:45 10° SE
Cosmos 2360 Rocket 2.6 03:45:05 10° NW 03:50:20 40° WSW 03:55:34 10° S
Resurs 1-4 Rocket 4.0 03:51:50 10° NNW 03:54:49 15° WNW 03:57:46 10° W
DELTA 2 R/B (1) 3.7 03:49:30 10° W 03:54:56 55° SSW 04:00:19 10° ESE
Cosmos 1975 Rocket 4.5 03:52:31 10° SSE 03:56:29 37° E 04:00:26 10° NNE
BREEZE-M DEB (TANK) 4.1 03:59:36 10° NNW 04:01:37 28° NE 04:05:29 10° ESE
Cosmos 2327 Rocket 4.5 03:59:15 10° S 04:05:27 85° W 04:11:37 10° N
OAO 3 Rocket 4.1 04:01:44 10° WSW 04:06:00 30° SSW 04:10:15 10° SE
H-2A R/B 3.8 04:01:36 10° NNE 04:06:30 33° E 04:11:22 10° SSE
Geosat 4.0 04:03:34 10° SSE 04:08:32 67° WSW 04:13:32 10° NNW
Cosmos 1825 2.8 04:06:40 12° SW 04:09:26 32° WNW 04:12:33 10° NNW
Cosmos 1503 Rocket 4.3 04:05:00 10° S 04:10:19 71° ESE 04:15:40 10° NNE
PAYLOAD A 3.9 04:06:48 10° NNE 04:11:38 88° ESE 04:16:37 10° SSW
ASTEX 1 3.4 04:06:52 10° S 04:11:48 79° W 04:16:44 10° N
Cosmos 1892 3.8 04:13:16 11° SW 04:16:02 24° WNW 04:18:55 10° NNW
YAOGAN 6 2.4 04:14:36 10° N 04:17:52 64° WNW 04:21:06 10° SSW
Cosmos 1025 Rocket 3.2 04:16:23 10° SSW 04:20:40 55° W 04:25:00 10° N
Cosmos 371 Rocket 3.3 04:18:16 10° SSW 04:23:02 73° WNW 04:27:49 10° NNE
Cosmos 2333 Rocket 3.3 04:18:51 10° NW 04:23:19 24° WSW 04:27:48 10° SSW
Cosmos 1455 Rocket 3.2 04:19:10 10° N 04:23:33 83° E 04:27:57 10° S
Cosmos 1328 4.5 04:23:18 10° SW 04:26:45 34° WNW 04:30:16 10° N
SL-4 R/B 3.1 04:22:56 10° W 04:27:05 42° NNW 04:31:21 10° NE
Cosmos 2322 Rocket 3.8 04:24:30 10° WNW 04:27:23 14° W 04:30:15 10° SW
Meteor 1-21 Rocket 4.4 04:22:04 10° SSW 04:27:58 73° W 04:33:53 10° N
